When you browse on this site, cookies collect data to enhance your experience and personalize the content and advertising you see.
Visit our Privacy Policy to learn more. By continuing to use the site, you agree to this use of cookies and data.
  • en France
  • Liste des pays
  • À 7 jours
  • Température de l'eau
  • Carte météo
  • Widgets météo
  • user-avatar
    Se connecter

    Météo par heure à Baden-Baden

    Ce jour, 22 Janvier, Mercredi

    Heure Température Précipitation Vent Pression Humidité
    00:00 -1°C° 0 mm 1 m/s 744 mmHg 80%
    01:00 -1°C° 0 mm 1 m/s 744 mmHg 79%
    02:00 -1°C° 0 mm 1 m/s 743 mmHg 79%
    03:00 -1°C° 0 mm 1 m/s 743 mmHg 79%
    04:00 -2°C° 0 mm 0 m/s 743 mmHg 79%
    05:00 -1°C° 0 mm 1 m/s 743 mmHg 79%
    06:00 -1°C° 0 mm 1 m/s 742 mmHg 80%
    07:00 -1°C° 0 mm 1 m/s 742 mmHg 80%
    08:00 0°C° 0 mm 1 m/s 743 mmHg 76%
    09:00 0°C° 0 mm 1 m/s 743 mmHg 72%
    10:00 0°C° 0 mm 0 m/s 743 mmHg 68%
    11:00 +3°C° 0 mm 1 m/s 743 mmHg 63%
    12:00 +4°C° 0 mm 1 m/s 743 mmHg 58%
    13:00 +5°C° 0 mm 1 m/s 743 mmHg 53%
    14:00 +5°C° 0 mm 1 m/s 742 mmHg 58%
    15:00 +4°C° 0 mm 1 m/s 742 mmHg 63%
    16:00 +3°C° 0 mm 1 m/s 742 mmHg 68%
    17:00 +2°C° 0 mm 1 m/s 742 mmHg 69%
    18:00 +1°C° 0 mm 1 m/s 742 mmHg 71%
    19:00 0°C° 0 mm 1 m/s 742 mmHg 72%
    20:00 0°C° 0 mm 1 m/s 742 mmHg 70%
    21:00 0°C° 0 mm 1 m/s 742 mmHg 68%
    22:00 -2°C° 0 mm 2 m/s 742 mmHg 66%
    23:00 -2°C° 0 mm 2 m/s 742 mmHg 67%

    Demain, 23 Janvier, Jeudi

    Heure Température Précipitation Vent Pression Humidité
    00:00 -2°C° 0 mm 2 m/s 742 mmHg 68%
    01:00 -2°C° 0 mm 2 m/s 742 mmHg 68%
    02:00 -2°C° 0 mm 2 m/s 741 mmHg 69%
    03:00 -2°C° 0 mm 2 m/s 741 mmHg 69%
    04:00 -2°C° 0 mm 2 m/s 740 mmHg 70%
    05:00 -2°C° 0 mm 2 m/s 740 mmHg 70%
    06:00 -2°C° 0 mm 2 m/s 740 mmHg 70%
    07:00 -2°C° 0 mm 2 m/s 739 mmHg 70%
    08:00 -1°C° 0 mm 2 m/s 739 mmHg 69%
    09:00 -1°C° 0 mm 2 m/s 739 mmHg 68%
    10:00 +1°C° 0 mm 2 m/s 739 mmHg 67%
    11:00 +3°C° 0 mm 2 m/s 738 mmHg 65%
    12:00 +4°C° 0 mm 2 m/s 738 mmHg 63%
    13:00 +5°C° 0 mm 2 m/s 737 mmHg 61%
    14:00 +5°C° 0 mm 2 m/s 737 mmHg 65%
    15:00 +4°C° 0 mm 2 m/s 736 mmHg 69%
    16:00 +4°C° 0 mm 2 m/s 736 mmHg 73%
    17:00 +3°C° 0 mm 2 m/s 736 mmHg 77%
    18:00 +1°C° 0 mm 2 m/s 736 mmHg 82%
    19:00 -1°C° 0 mm 2 m/s 736 mmHg 86%
    20:00 +1°C° 0 mm 1 m/s 736 mmHg 87%
    21:00 0°C° 0 mm 1 m/s 736 mmHg 87%
    22:00 0°C° 0 mm 1 m/s 736 mmHg 88%
    23:00 0°C° 0 mm 1 m/s 736 mmHg 86%

    Après-demain, 24 Janvier, Vendredi

    Heure Température Précipitation Vent Pression Humidité
    00:00 0°C° 0 mm 1 m/s 736 mmHg 85%
    01:00 -1°C° 0 mm 0 m/s 736 mmHg 83%
    02:00 -1°C° 0 mm 0 m/s 735 mmHg 82%
    03:00 -1°C° 0 mm 0 m/s 735 mmHg 81%
    04:00 -1°C° 0 mm 0 m/s 734 mmHg 79%
    05:00 -1°C° 0 mm 0 m/s 734 mmHg 79%
    06:00 -1°C° 0 mm 0 m/s 734 mmHg 79%
    07:00 -1°C° 0 mm 0 m/s 734 mmHg 80%
    08:00 0°C° 0 mm 0 m/s 734 mmHg 77%
    09:00 +1°C° 0 mm 0 m/s 734 mmHg 75%
    10:00 +2°C° 0 mm 0 m/s 734 mmHg 73%
    11:00 +3°C° 0 mm 0 m/s 734 mmHg 71%
    12:00 +5°C° 0 mm 0 m/s 734 mmHg 68%
    13:00 +7°C° 0 mm 1 m/s 733 mmHg 66%
    14:00 +6°C° 0 mm 1 m/s 733 mmHg 70%
    15:00 +5°C° 0 mm 0 m/s 733 mmHg 75%
    16:00 +4°C° 0 mm 0 m/s 732 mmHg 80%
    17:00 +3°C° 0 mm 0 m/s 732 mmHg 83%
    18:00 +4°C° 0 mm 1 m/s 733 mmHg 85%
    19:00 +3°C° 0 mm 1 m/s 733 mmHg 88%
    20:00 +3°C° 0 mm 1 m/s 733 mmHg 88%
    21:00 +3°C° 0 mm 1 m/s 733 mmHg 89%
    22:00 +3°C° 0 mm 1 m/s 733 mmHg 90%
    23:00 +3°C° 0 mm 1 m/s 733 mmHg 90%

    25 Janvier, Samedi

    Heure Température Précipitation Vent Pression Humidité
    00:00 +3°C° 0 mm 1 m/s 733 mmHg 91%
    01:00 +3°C° 0 mm 1 m/s 733 mmHg 91%
    02:00 +3°C° 0 mm 1 m/s 733 mmHg 92%
    03:00 +3°C° 0 mm 1 m/s 733 mmHg 92%
    04:00 +3°C° 0 mm 1 m/s 732 mmHg 93%
    05:00 +3°C° 0 mm 1 m/s 732 mmHg 93%
    06:00 +2°C° 0 mm 0 m/s 732 mmHg 93%
    07:00 +2°C° 0 mm 0 m/s 732 mmHg 93%
    08:00 +3°C° 0 mm 0 m/s 733 mmHg 92%
    09:00 +3°C° 0 mm 0 m/s 733 mmHg 91%
    10:00 +5°C° 0 mm 1 m/s 733 mmHg 89%
    11:00 +6°C° 0 mm 1 m/s 733 mmHg 87%
    12:00 +7°C° 0 mm 1 m/s 733 mmHg 84%
    13:00 +8°C° 0 mm 1 m/s 733 mmHg 81%
    14:00 +7°C° 0 mm 0 m/s 732 mmHg 83%
    15:00 +7°C° 0 mm 0 m/s 732 mmHg 85%
    16:00 +6°C° 0 mm 0 m/s 732 mmHg 86%
    17:00 +6°C° 0 mm 0 m/s 732 mmHg 88%
    18:00 +6°C° 0 mm 1 m/s 732 mmHg 90%
    19:00 +5°C° 0 mm 1 m/s 732 mmHg 92%
    20:00 +4°C° 0 mm 1 m/s 732 mmHg 92%
    21:00 +4°C° 0 mm 1 m/s 732 mmHg 91%
    22:00 +4°C° 0 mm 1 m/s 732 mmHg 91%
    23:00 +4°C° 0 mm 1 m/s 732 mmHg 91%

    26 Janvier, Dimanche

    Heure Température Précipitation Vent Pression Humidité
    00:00 +4°C° 0 mm 1 m/s 732 mmHg 91%
    01:00 +4°C° 0 mm 1 m/s 732 mmHg 91%
    02:00 +4°C° 0 mm 1 m/s 732 mmHg 90%
    03:00 +4°C° 0 mm 1 m/s 732 mmHg 88%
    04:00 +5°C° 0 mm 1 m/s 731 mmHg 87%
    05:00 +5°C° 0 mm 1 m/s 731 mmHg 87%
    06:00 +5°C° 0 mm 1 m/s 731 mmHg 87%
    07:00 +4°C° 0 mm 1 m/s 731 mmHg 87%
    08:00 +4°C° 0 mm 2 m/s 732 mmHg 85%
    09:00 +5°C° 0 mm 2 m/s 732 mmHg 82%
    10:00 +5°C° 0 mm 2 m/s 732 mmHg 80%
    11:00 +7°C° 0 mm 2 m/s 732 mmHg 77%
    12:00 +8°C° 0 mm 3 m/s 732 mmHg 73%
    13:00 +9°C° 0 mm 3 m/s 732 mmHg 69%
    14:00 +9°C° 0 mm 3 m/s 732 mmHg 72%
    15:00 +9°C° 0 mm 2 m/s 732 mmHg 75%
    16:00 +8°C° 0 mm 2 m/s 732 mmHg 78%
    17:00 +8°C° 0.1 mm 2 m/s 732 mmHg 82%
    18:00 +7°C° 0.1 mm 2 m/s 732 mmHg 86%
    19:00 +7°C° 0.1 mm 2 m/s 733 mmHg 89%
    20:00 +6°C° 0.2 mm 2 m/s 733 mmHg 90%
    21:00 +5°C° 0.2 mm 3 m/s 733 mmHg 91%
    22:00 +5°C° 0.2 mm 3 m/s 733 mmHg 92%
    23:00 +5°C° 0 mm 3 m/s 733 mmHg 92%

    27 Janvier, Lundi

    Heure Température Précipitation Vent Pression Humidité
    00:00 +5°C° 0 mm 3 m/s 733 mmHg 92%
    01:00 +5°C° 0 mm 3 m/s 734 mmHg 91%
    02:00 +5°C° 0 mm 3 m/s 734 mmHg 91%
    03:00 +4°C° 0 mm 3 m/s 733 mmHg 90%
    04:00 +4°C° 0 mm 3 m/s 733 mmHg 90%
    05:00 +4°C° 0 mm 3 m/s 733 mmHg 89%
    06:00 +4°C° 0 mm 3 m/s 733 mmHg 89%
    07:00 +4°C° 0 mm 3 m/s 733 mmHg 89%
    08:00 +4°C° 0 mm 4 m/s 734 mmHg 87%
    09:00 +5°C° 0 mm 4 m/s 734 mmHg 85%
    10:00 +5°C° 0 mm 4 m/s 734 mmHg 83%
    11:00 +6°C° 0 mm 4 m/s 733 mmHg 79%
    12:00 +7°C° 0 mm 4 m/s 733 mmHg 76%
    13:00 +8°C° 0 mm 5 m/s 733 mmHg 72%
    14:00 +8°C° 0 mm 4 m/s 732 mmHg 73%
    15:00 +8°C° 0 mm 4 m/s 731 mmHg 74%
    16:00 +7°C° 0 mm 4 m/s 731 mmHg 75%
    17:00 +7°C° 0 mm 4 m/s 731 mmHg 75%
    18:00 +7°C° 0 mm 4 m/s 730 mmHg 76%
    19:00 +6°C° 0 mm 4 m/s 730 mmHg 76%
    20:00 +6°C° 0 mm 4 m/s 730 mmHg 75%
    21:00 +6°C° 0 mm 4 m/s 730 mmHg 74%
    22:00 +6°C° 0 mm 4 m/s 730 mmHg 72%
    23:00 +6°C° 0 mm 5 m/s 729 mmHg 71%
    Voir plus